Regional Weather Roundup
Issued by NWS

Home | Current Version | Previous Version | Text Only | Print | Product List | Glossary Off
Versions: 1 2 3 4 5 6 7 8 9 10 11 12 13 14 15 16 17 18 19 20 21 22 23 24 25 26 27 28 29 30 31 32 33 34 35 36 37 38 39 40 41 42 43 44 45 46 47 48 49 50

000
ASUS43 KFSD 251902
RWRSD

WEATHER ROUNDUP FOR SOUTH DAKOTA
NATIONAL WEATHER SERVICE SIOUX FALLS SD
200 PM CDT WED MAY 25 2016

NOTE: "FAIR" INDICATES FEW OR NO CLOUDS BELOW 12,000 FEET WITH NO
SIGNIFICANT WEATHER AND/OR OBSTRUCTIONS TO VISIBILITY.


SDZ001>005-009-010-012>017-252000-
NORTHWEST AND NORTH CENTRAL SOUTH DAKOTA

CITY           SKY/WX    TMP DP  RH WIND       PRES   REMARKS
BUFFALO          N/A     61  44  53 NW22G31   29.80S
FAITH            N/A     68  48  48 W18       29.81S
MOBRIDGE       SUNNY     71  55  56 VRB5      29.74S
$$

SDZ012>016-024>037-041>051-057-063-072>074-252000-
SOUTHWEST AND SOUTH CENTRAL SOUTH DAKOTA

CITY           SKY/WX    TMP DP  RH WIND       PRES   REMARKS
RAPID CTY ARPT SUNNY     62  49  62 N23G29    29.85R
PIERRE         SUNNY     73  57  57 W12       29.77S
CUSTER         MOSUNNY   58  41  53 W14G23    29.93F
PHILIP         MOSUNNY   72  54  53 NW9       29.80F
PINE RIDGE     SUNNY     70  41  34 W21G28    29.89S
$$

SDZ004>011-016>023-039-040-252000-
NORTHEAST SOUTH DAKOTA

CITY           SKY/WX    TMP DP  RH WIND       PRES   REMARKS
ABERDEEN       PTSUNNY   73  60  63 W10       29.73F
WATERTOWN      PTSUNNY   72  60  66 SW18G24   29.78R
BROOKINGS      PTSUNNY   70  60  70 SW14      29.81S
SISSETON         N/A     74  58  57 W23G31    29.71R
$$

SDZ017-020-022-023-036>040-048>070-252000-
SOUTHEAST SOUTH DAKOTA

CITY           SKY/WX    TMP DP  RH WIND       PRES   REMARKS
SIOUX FALLS    PTSUNNY   74  61  63 SW14G20   29.82F
HURON          PTSUNNY   73  59  61 W10       29.78R
MITCHELL       MOSUNNY   74  62  66 S10       29.80F
YANKTON        SUNNY     79  57  47 SW9       29.79F
$$

ABBREVIATIONS USED IN REMARKS
   TC - TEMPERATURE IN CELSIUS
  WCI - WIND CHILL INDEX
   HX - HEAT INDEX
  VSB - VISIBILITY





USA.gov is the U.S. government's official web portal to all federal, state and local government web resources and services.